Regional Weather Roundup
Issued by NWS

Home | Current Version | Previous Version | Text Only | Print | Product List | Glossary Off
Versions: 1 2 3 4 5 6 7 8 9 10 11 12 13 14 15 16 17 18 19 20 21 22 23 24 25 26 27 28 29 30 31 32 33 34 35 36 37 38 39 40 41 42 43 44 45 46 47 48 49 50

000
ASUS45 KPSR 130610
RWRAZ

ARIZONA HOURLY REGIONAL WEATHER ROUNDUP
NATIONAL WEATHER SERVICE PHOENIX AZ
1100 PM MST FRI FEB 12 2016

NOTE: FAIR INDICATES FEW OR NO CLOUDS BELOW 12,000 FEET WITH NO
SIGNIFICANT WEATHER AND/OR OBSTRUCTIONS TO VISIBILITY.

AZZ001>003-036-130700-
NORTHWEST ARIZONA

CITY           SKY/WX    TMP DP  RH WIND       PRES   REMARKS
BULLHEAD CITY  CLEAR     64  32  29 N6        30.11R
KINGMAN        CLEAR     40  23  50 CALM      30.20S
6HR MIN TEMP:  40; 6HR MAX TEMP:  74;

$$

AZZ004>008-015-016-018-130700-
NORTH CENTRAL ARIZONA

CITY           SKY/WX    TMP DP  RH WIND       PRES   REMARKS
GRAND CANYON   PTCLDY    29  22  75 CALM      30.35F
6HR MIN TEMP:  29; 6HR MAX TEMP:  64;

WILLIAMS       PTCLDY    36  19  51 S10       30.40S WCI  28
PRESCOTT       CLEAR     45  26  47 CALM      30.28R
6HR MIN TEMP:  44; 6HR MAX TEMP:  73;

FLAGSTAFF      PTCLDY    28  20  71 CALM      30.36F
6HR MIN TEMP:  28; 6HR MAX TEMP:  61;

PAYSON         CLEAR     48  21  34 CALM      30.29S
PAGE           PTCLDY    42  30  62 CALM      30.29S
6HR MIN TEMP:  42; 6HR MAX TEMP:  57;

$$

AZZ009>014-017-130700-
NORTHEAST ARIZONA

CITY           SKY/WX    TMP DP  RH WIND       PRES   REMARKS
WINSLOW        MOCLDY    32  18  56 SW5       30.30S WCI  27
6HR MIN TEMP:  32; 6HR MAX TEMP:  68;

SAINT JOHNS    PTCLDY    41  15  35 S7        30.30F
6HR MIN TEMP:  41; 6HR MAX TEMP:  69;

WINDOW ROCK    CLEAR     29   0  28 CALM      30.38S
6HR MIN TEMP:  29; 6HR MAX TEMP:  63;

SHOW LOW       PTCLDY    37  18  44 CALM      30.35S
$$

AZZ023-130700-
GREATER PHOENIX AREA

CITY           SKY/WX    TMP DP  RH WIND       PRES   REMARKS
PHOENIX        CLEAR     67  32  27 CALM      30.06R
6HR MIN TEMP:  66; 6HR MAX TEMP:  86;

BUCKEYE        CLEAR     59  30  33 NE5       30.08S
LUKE AFB       CLEAR     58  35  43 N8        30.05S
6HR MIN TEMP:  58; 6HR MAX TEMP:  84;

DEER VALLEY    CLEAR     63  33  32 NE9       30.07S
6HR MIN TEMP:  61; 6HR MAX TEMP:  82;

SCOTTSDALE     CLEAR     59  36  42 CALM      30.08S
6HR MIN TEMP:  59; 6HR MAX TEMP:  83;

MESA-GATEWAY   CLEAR     55  34  44 SE6       30.08S
$$

AZZ027-028-130700-
SOUTHWEST MARICOPA COUNTY AND PINAL COUNTY

CITY           SKY/WX    TMP DP  RH WIND       PRES   REMARKS
CASA GRANDE    CLEAR     55  27  33 CALM      30.09S
6HR MIN TEMP:  54; 6HR MAX TEMP:  81;

GILA BEND      FAIR      59  27  29 SE10      30.05S
6HR MIN TEMP:  59; 6HR MAX TEMP:  84;

$$

AZZ503-504-507>509-130700-
SOUTHEAST ARIZONA

CITY           SKY/WX    TMP DP  RH WIND       PRES   REMARKS
TUCSON         PTCLDY    60  24  25 SE7       30.16R
6HR MIN TEMP:  60; 6HR MAX TEMP:  86;

DAVIS-MONTHAN  PTCLDY    56  25  29 SE7       30.14R
6HR MIN TEMP:  55; 6HR MAX TEMP:  83;

NOGALES        PTCLDY    54  17  23 S3        30.19S
6HR MIN TEMP:  53; 6HR MAX TEMP:  80;

SIERRA VISTA   MOCLDY    53  12  19 SW8       30.25R
6HR MIN TEMP:  51; 6HR MAX TEMP:  75;

DOUGLAS        MOCLDY    46   9  22 NW8       30.22S
6HR MIN TEMP:  44; 6HR MAX TEMP:  77;

SAFFORD        PTCLDY    47  20  34 E6        30.18R
6HR MIN TEMP:  46; 6HR MAX TEMP:  79;

$$

AZZ020-021-025-026-031-130700-
SOUTHWEST ARIZONA

CITY           SKY/WX    TMP DP  RH WIND       PRES   REMARKS
YUMA           PTCLDY    59  34  39 CALM      30.04R
6HR MIN TEMP:  59; 6HR MAX TEMP:  87;

$$

CAZ031-033-041-043-047-048-061-130700-
SOUTHERN CALIFORNIA

CITY           SKY/WX    TMP DP  RH WIND       PRES   REMARKS
DOWNTOWN L.A.  CLEAR     60  54  80 CALM      30.07R
6HR MIN TEMP:  60; 6HR MAX TEMP:  78;

L.A. AIRPORT   CLEAR     60  55  83 SW5       30.08R
6HR MIN TEMP:  59; 6HR MAX TEMP:  68;

SAN DIEGO      CLEAR     63  54  73 CALM      30.11R
6HR MIN TEMP:  63; 6HR MAX TEMP:  73;

BURBANK        CLEAR     64  35  34 CALM      30.08R
6HR MIN TEMP:  63; 6HR MAX TEMP:  83;

ONTARIO        PTCLDY    66  39  37 CALM      30.09R
6HR MIN TEMP:  63; 6HR MAX TEMP:  86;

RIVERSIDE      CLEAR     63  40  42 CALM      30.10R
6HR MIN TEMP:  63; 6HR MAX TEMP:  86;

PALM SPRINGS   CLEAR     66  27  23 NW9       30.09R
6HR MIN TEMP:  66; 6HR MAX TEMP:  86;

EL CENTRO NAS  CLEAR     62  22  21 W5        30.06S
6HR MIN TEMP:  58; 6HR MAX TEMP:  85;

IMPERIAL       CLEAR     60  33  36 SW3       30.04R
6HR MIN TEMP:  57; 6HR MAX TEMP:  87;

BLYTHE         CLEAR     56  23  27 CALM      30.06R
6HR MIN TEMP:  56; 6HR MAX TEMP:  82;

NEEDLES        CLEAR     62  25  24 NW9       30.10S
6HR MIN TEMP:  61; 6HR MAX TEMP:  82;

$$

NVZ020-UTZ003-130700-
SOUTHERN NEVADA-UTAH

CITY           SKY/WX    TMP DP  RH WIND       PRES   REMARKS
LAS VEGAS      PTCLDY    57  24  28 CALM      30.13S
6HR MIN TEMP:  57; 6HR MAX TEMP:  73;

SALT LAKE CITY CLOUDY    29  27  92 W6        30.33S FOG     WCI  23
6HR MIN TEMP:  29; 6HR MAX TEMP:  31;

$$

NMZ009-TXZ055-130700-
NEW MEXICO-WEST TEXAS

CITY           SKY/WX    TMP DP  RH WIND       PRES   REMARKS
ALBUQUERQUE    CLOUDY    46  19  34 CALM      30.33R
6HR MIN TEMP:  46; 6HR MAX TEMP:  66;

EL PASO        PTCLDY    50  13  22 CALM      30.26R
6HR MIN TEMP:  47; 6HR MAX TEMP:  73;

$$


........................KEY........................
SKY/WX - SKY CONDITION/WEATHER
TMP    - TEMPERATURE IN FAHRENHEIT
DP     - DEW POINT IN FAHRENHEIT
RH     - RELATIVE HUMIDITY IN PERCENT
WIND   - DIRECTION AND SPEED IN MILES PER HOUR (MPH)
VRB    - VARIABLE WIND DIRECTION
PRES   - MEAN SEA LEVEL PRESSURE IN INCHES OF MERCURY
         F - FALLING PRESSURE   R - RISING PRESSURE
         S - STEADY PRESSURE
VSB    - VISIBILITY IN MILES
HX     - HEAT INDEX IN FAHRENHEIT
WCI    - WIND CHILL INDEX IN FAHRENHEIT
TC     - TEMPERATURE IN CELSIUS WHICH IS ALSO KNOWN AS
         TEMPERATURE IN CENTIGRADE
AFB    - AIR FORCE BASE
         LUKE AFB IS LUKE AIR FORCE BASE
         DAVIS-MONTHAN IS DAVIS-MONTHAN AIR FORCE BASE
NAS    - NAVAL AIR STATION
         EL CENTRO NAS IS EL CENTRO NAVAL AIR STATION
N/A    - NOT AVAILABLE




USA.gov is the U.S. government's official web portal to all federal, state and local government web resources and services.